Skip Navigation Links weather.gov 
NOAA logo-Select to go to the NOAA homepage NDBC Title GraphicClick to go to NDBC home page   Select to go to the NWS homepage
Home About Us Contact Us
 
 
    
    Station List

 Data Access
    Mobile Access
    Classic Maps
         Recent
         DART®
    Obs Search
    Ship Obs Report
    BuoyCAMs
    TAO
    DODS
    OceanSITES
    HF Radar
    OSMC
    Dial-A-Buoy
    RSS Feeds Image indicating link to RSS feed access page
    Web Widget
    Web Data Guide
    Maintenance Schedule
    Station Status Report

 Program Info
    TAO
    DART®
    IOOS®

 Publications
    NDBC PEA
    NDBC FONSI
    NDBC DQC Handbook

 Visitor Information
 
USA.gov is the U.S. government's official web portal to all federal, state and local government web resources and services.

Station FPST2 - 8772471 - Freeport SPIP, TX Image indicating link to RSS feed of recent meteorological observations for station FPST2

Owned and maintained by Texas Coastal Ocean Observing Network
C-MAN Station
28.936 N 95.294 W (28°56'9" N 95°17'39" W)

Site elevation: 0 m above mean sea level
Air temp height: 13 m above site elevation
Anemometer height: 15 m above site elevation
Barometer elevation: 13 m above mean sea level

Search And Rescue (SAR) Data

Meteorological Observations from Nearby Stations and Ships Image indicating link to RSS feed of recent meteorological observations near station FPST2

Regional HF Radar Surface Current Observations

Station FPST2
Large icon indicates selected station.
yellow diamond Stations with recent data
red diamond Stations with no data in last 8 hours
     (24 hours for tsunami stations)


Conditions at FPST2 as of
(8:54 am CST)
1454 GMT on 03/02/2021:

Note: This report is more than two hours old
     

Click on the graph icon in the table below to see a time series plot of the last five days of that observation.

5-day plot - Wind Direction Wind Direction (WDIR): N ( 360 deg true )
5-day plot - Wind Speed Wind Speed (WSPD): 17 kts
5-day plot - Wind Gust Wind Gust (GST): 20 kts
5-day plot - Atmospheric Pressure Atmospheric Pressure (PRES): 30.17 in
5-day plot - Air Temperature Air Temperature (ATMP): 50.2 °F
5-day plot - Wind Chill Wind Chill (CHILL): 43.9 °F
5-day plot - Wind Speed at 10 Meters Wind Speed at 10 meters (WSPD10M): 16 kts
5-day plot - Wind Speed at 10 Meters Wind Speed at 20 meters (WSPD20M): 17 kts
5-day plot - Wind Speed, Wind Gust and Atmospheric Pressure Combined plot of Wind Speed, Gust, and Air Pressure
Previous observations
5-day plot - Wind Direction 5-day plot - Wind Speed 5-day plot - Wind Gust 5-day plot - Wave Height 5-day plot - Dominant Wave Period 5-day plot - Average Period 5-day plot - Mean Wave Direction 5-day plot - Atmospheric Pressure 5-day plot - Pressure Tendency 5-day plot - Air Temperature 5-day plot - Water Temperature 5-day plot - Dew Point 5-day plot - Salinity 5-day plot - Visibility 5-day plot - Tide (above MLLW)
MM DD TIME
(CST)
WDIR WSPD
kts
GST
kts
WVHT
ft
DPD
sec
APD
sec
MWD PRES
in
PTDY
in
ATMP
°F
WTMP
°F
DEWP
°F
SAL
psu
VIS
nmi
TIDE
ft
0302 8:48 am N 15 20----30.17- 50.0-----
0302 8:42 am N 15 20----30.17- 50.0-----
0302 8:36 am N 14 19----30.16- 50.0-----
0302 8:30 am N 13 18----30.16- 50.0-----
0302 8:24 am N 11 17----30.17- 50.0-----
0302 8:18 am N 13 17----30.17- 50.0-----
0302 8:12 am N 17 20----30.17- 49.8-----
0302 8:06 amNNW 14 19----30.17- 50.0-----
0302 8:00 am N 13 20----30.16+0.04 49.8-----
0302 7:54 amNNW 12 18----30.16- 49.8-----
0302 7:48 amNNW 13 19----30.16- 49.8-----
0302 7:42 am N 14 19----30.15- 49.8-----
0302 7:36 amNNW 14 20----30.16- 49.8-----
0302 7:30 amNNW 13 18----30.16- 49.8-----
0302 7:24 amNNW 15 19----30.16- 49.8-----
0302 7:18 amNNW 16 19----30.15- 49.8-----
0302 7:12 am N 15 19----30.15- 49.8-----
0302 7:06 amNNW 15 21----30.15- 49.8-----
0302 7:00 am N 13 15----30.14+0.05 49.8-----
0302 6:54 amNNW 14 24----30.14- 49.8-----
0302 6:48 amNNW 15 20----30.14- 49.8-----
0302 6:42 amNNW 15 25----30.14- 50.0-----
0302 6:36 amNNW 16 22----30.14- 50.0-----
0302 6:30 amNNW 15 20----30.14- 50.0-----
0302 6:24 amNNW 16 18----30.13- 50.0-----
0302 6:18 amNNW 15 22----30.13- 50.0-----
0302 6:12 amNNW 17 21----30.13- 50.0-----
0302 6:06 amNNW 20 25----30.12- 50.0-----
0302 6:00 amNNW 15 21----30.12+0.02 50.0-----
0302 5:54 amNNW 16 22----30.13- 50.2-----
0302 5:48 amNNW 18 23----30.13- 50.2-----
0302 5:42 amNNW 18 23----30.13- 50.2-----
0302 5:36 amNNW 18 23----30.13- 50.2-----
0302 5:30 amNNW 14 20----30.13- 50.2-----
0302 5:24 amNNW 15 19----30.13- 50.2-----
0302 5:18 amNNW 13 18----30.13- 50.2-----
0302 5:12 amNNW 13 19----30.12- 50.5-----
0302 5:06 amNNW 14 21----30.12- 50.5-----
0302 5:00 amNNW 15 19----30.12+0.01 50.5-----
0302 4:54 amNNW 14 19----30.12- 50.5-----
0302 4:48 amNNW 14 22----30.12- 50.7-----
0302 4:42 amNNW 16 19----30.12- 50.5-----
0302 4:36 amNNW 15 20----30.11- 50.7-----
0302 4:30 amNNW 15 19----30.11- 50.7-----
0302 4:24 amNNW 14 19----30.11- 50.9-----
0302 4:18 am N 14 20----30.11- 50.9-----
0302 4:12 amNNW 15 21----30.10- 51.1-----
0302 4:06 amNNW 17 23----30.09- 51.3-----
0302 4:00 amNNW 15 20----30.09-0.03 51.3-----
0302 3:54 am N 18 23----30.09- 51.3-----
0302 3:48 amNNW 14 19----30.09- 51.4-----
0302 3:42 amNNW 17 23----30.09- 51.4-----
0302 3:36 amNNW 14 21----30.09- 51.4-----
0302 3:30 amNNW 17 22----30.09- 51.4-----
0302 3:24 amNNW 17 21----30.09- 51.4-----
0302 3:18 amNNW 17 20----30.10- 51.6-----
0302 3:12 amNNW 16 20----30.10- 51.6-----
0302 3:06 amNNW 19 22----30.10- 51.6-----
0302 3:00 amNNW 16 21----30.10-0.03 51.6-----
0302 2:54 amNNW 18 23----30.10- 51.8-----
0302 2:48 amNNW 16 22----30.10- 51.8-----
0302 2:42 amNNW 19 22----30.10- 51.8-----
0302 2:36 amNNW 18 23----30.11- 51.8-----
0302 2:30 amNNW 16 23----30.11- 52.0-----
0302 2:24 amNNW 16 24----30.11- 52.0-----
0302 2:18 amNNW 17 22----30.11- 52.2-----
0302 2:12 amNNW 15 20----30.11- 52.3-----
0302 2:06 amNNW 17 20----30.11- 52.3-----
0302 2:00 amNNW 17 21----30.11-0.02 52.5-----
0302 1:54 amNNW 16 24----30.12- 52.5-----
0302 1:48 amNNW 16 23----30.12- 52.5-----
0302 1:42 amNNW 19 24----30.11- 52.5-----
0302 1:36 amNNW 17 21----30.12- 52.5-----
0302 1:30 amNNW 19 25----30.12- 52.7-----
0302 1:24 amNNW 18 23----30.12- 52.7-----
0302 1:18 amNNW 18 21----30.12- 52.9-----
0302 1:12 amNNW 17 22----30.12- 52.9-----
0302 1:06 amNNW 15 19----30.13- 53.1-----
0302 1:00 amNNW 15 21----30.12+0.00 52.9-----
030212:54 amNNW 14 21----30.12- 52.9-----
030212:48 amNNW 16 22----30.12- 52.9-----
030212:42 amNNW 15 20----30.12- 52.9-----
030212:36 amNNW 16 23----30.12- 53.1-----
030212:30 amNNW 17 22----30.12- 52.9-----
030212:24 amNNW 18 24----30.12- 53.1-----
030212:18 amNNW 20 25----30.12- 53.1-----
030212:12 amNNW 16 25----30.13- 53.4-----
030212:06 amNNW 19 22----30.13- 53.4-----
030212:00 amNNW 17 22----30.13+0.02 53.6-----
030111:54 pmNNW 17 22----30.14- 53.4-----
030111:48 pmNNW 16 21----30.14- 53.2-----
030111:42 pmNNW 15 24----30.14- 53.4-----
030111:36 pmNNW 16 22----30.14- 53.4-----
030111:30 pmNNW 17 23----30.14- 53.4-----
030111:24 pmNNW 17 21----30.14- 53.4-----
030111:18 pmNNW 16 19----30.14- 53.4-----
030111:12 pmNNW 17 24----30.14- 53.4-----
030111:06 pmNNW 15 21----30.13- 53.6-----
030111:00 pmNNW 18 23----30.14+0.04 53.6-----
030110:54 pmNNW 16 23----30.14- 53.8-----
030110:48 pm NW 16 23----30.14- 53.8-----
030110:42 pmNNW 16 23----30.14- 54.0-----
030110:36 pmNNW 13 21----30.13- 54.0-----
030110:30 pmNNW 14 20----30.14- 54.1-----
030110:24 pmNNW 15 22----30.13- 54.1-----
030110:18 pm NW 15 19----30.13- 54.1-----
030110:12 pmNNW 16 21----30.13- 54.5-----
030110:06 pmNNW 15 20----30.13- 54.7-----
030110:00 pmNNW 15 21----30.13+0.07 54.7-----
0301 9:54 pmNNW 13 18----30.12- 55.0-----
0301 9:48 pm N 13 20----30.13- 55.0-----
0301 9:42 pmNNW 16 20----30.12- 55.2-----
0301 9:36 pmNNW 15 20----30.12- 55.2-----
0301 9:30 pmNNW 14 20----30.12- 55.2-----
0301 9:24 pmNNW 14 23----30.12- 55.2-----
0301 9:18 pm N 15 21----30.11- 55.2-----
0301 9:12 pmNNW 16 19----30.11- 55.4-----
0301 9:06 pmNNW 14 21----30.11- 55.4-----
0301 9:00 pmNNW 16 20----30.11+0.07 55.4-----
0301 8:54 pm N 17 21----30.11- 55.4-----
0301 8:48 pm N 15 21----30.11- 55.6-----
0301 8:42 pmNNW 15 20----30.10- 55.6-----
0301 8:36 pm N 16 21----30.10- 55.6-----
0301 8:30 pm N 14 20----30.10- 55.8-----
0301 8:24 pm N 14 22----30.10- 55.9-----
0301 8:18 pm N 15 21----30.09- 55.9-----
0301 8:12 pm N 14 17----30.09- 56.1-----
0301 8:06 pm N 14 20----30.09- 56.1-----
0301 8:00 pm N 18 22----30.09+0.10 56.1-----
0301 7:54 pm N 16 19----30.09- 56.3-----
0301 7:48 pm N 13 21----30.09- 56.7-----
0301 7:42 pm N 12 18----30.09- 56.8-----
0301 7:36 pm N 15 22----30.09- 57.2-----
0301 7:30 pm N 21 25----30.06- 57.2-----
0301 7:24 pm N 21 25----30.07- 57.4-----
0301 7:18 pm N 18 22----30.07- 57.2-----
0301 7:12 pm N 19 23----30.06- 57.4-----
0301 7:06 pmNNE 17 20----30.05- 57.7-----
0301 7:00 pm N 17 20----30.05+0.07 57.7-----
0301 6:54 pm N 18 21----30.05- 57.7-----
0301 6:48 pm N 18 21----30.05- 57.6-----
0301 6:42 pm N 17 22----30.05- 57.7-----
0301 6:36 pm N 18 21----30.05- 58.1-----
0301 6:30 pm N 19 22----30.05- 58.6-----
0301 6:24 pm N 16 24----30.05- 58.8-----
0301 6:18 pm N 19 24----30.05- 59.2-----
0301 6:12 pm N 21 26----30.04- 59.7-----
0301 6:06 pm N 19 25----30.04- 59.9-----
0301 6:00 pmNNE 23 26----30.03+0.05 60.3-----
0301 5:54 pmNNE 22 25----30.02- 60.3-----
0301 5:48 pmNNE 17 20----30.02- 59.5-----
0301 5:42 pmNNE 19 23----30.01- 60.4-----
0301 5:36 pmNNE 21 23----30.01- 60.6-----
0301 5:30 pmNNE 22 28----30.01- 60.6-----
0301 5:24 pmNNE 22 27----30.00- 60.4-----
0301 5:18 pmNNE 20 26----30.00- 60.3-----
0301 5:12 pmNNE 24 26----29.99- 60.3-----
0301 5:06 pmNNE 21 28----29.99- 60.3-----
0301 5:00 pmNNE 26 29----29.99+0.02 60.3-----
0301 4:54 pm N 24 27----29.99- 60.3-----
0301 4:48 pm N 22 28----29.99- 60.4-----
0301 4:42 pmNNE 21 27----29.99- 60.6-----
0301 4:36 pmNNE 22 27----29.99- 60.8-----
0301 4:30 pmNNE 19 23----29.99- 61.0-----
0301 4:24 pm N 21 24----29.99- 61.0-----
0301 4:18 pmNNE 22 26----29.98- 61.0-----
0301 4:12 pmNNE 23 27----29.98- 61.0-----
0301 4:06 pmNNE 23 27----29.98- 61.2-----
0301 4:00 pm N 22 26----29.98+0.00 61.3-----
0301 3:54 pm N 23 25----29.98- 61.5-----
0301 3:48 pm N 24 26----29.98- 61.5-----
0301 3:42 pm N 20 23----29.98- 61.7-----
0301 3:36 pm N 19 25----29.99- 61.5-----
0301 3:30 pm N 17 22----29.99- 62.2-----
0301 3:24 pm N 18 22----29.98- 62.2-----
0301 3:18 pm N 17 24----29.98- 62.4-----
0301 3:12 pm N 17 21----29.98- 62.6-----
0301 3:06 pm N 22 25----29.98- 62.4-----
0301 3:00 pm N 19 23----29.98-0.02 63.1-----
0301 2:54 pm N 18 21----29.98- 63.3-----
0301 2:48 pm N 17 21----29.98- 63.3-----
0301 2:42 pm N 19 23----29.98- 63.5-----
0301 2:36 pm N 16 19----29.97- 63.7-----
0301 2:30 pm N 14 18----29.97- 63.7-----
0301 2:24 pm N 15 17----29.97- 63.5-----
0301 2:18 pm N 13 18----29.97- 63.3-----
0301 2:12 pm N 16 19----29.97- 63.3-----
0301 2:06 pm N 16 19----29.97- 63.5-----
0301 2:00 pm N 18 20----29.97-0.02 63.5-----
0301 1:54 pmNNW 16 20----29.97- 63.7-----

Description of Measurements

Links which are specific to this station are listed below:

Real Time Data in tabular form for the last forty-five days.

Historical Data & Climatic Summaries for quality controlled data for the current month, previous months, and previous years.